This is the latest recevied weather packets stored in our database for station/object WJ9H. If no packets are shown the sender has not sent any weather packets the latest 1 day(s).
| Time | Temp. | Humidity | Pressure | Rain* | Wind** | Luminosity | Snow |
|---|---|---|---|---|---|---|---|
| 1778035776 | 7.78° C | - | 1011.6 hPa | 0 mm | 2.24 m/s, 198° | - | - |
| 1778035377 | 7.78° C | - | 1011.6 hPa | 0 mm | 1.79 m/s, 200° | - | - |
| 1778035176 | 7.78° C | - | 1011.6 hPa | 0 mm | 1.79 m/s, 200° | - | - |
| 1778035000 | 7.78° C | - | 1011.2 hPa | 0 mm | 2.24 m/s, 205° | - | - |
| 1778034888 | 7.78° C | - | 1011.2 hPa | 0 mm | 2.24 m/s, 200° | - | - |
| 1778034578 | 7.78° C | - | 1011.2 hPa | 0 mm | 2.24 m/s, 205° | - | - |
| 1778034308 | 8.33° C | - | 1011.2 hPa | 0 mm | 2.24 m/s, 210° | - | - |
| 1778033976 | 8.33° C | - | 1011.2 hPa | 0 mm | 2.24 m/s, 210° | - | - |
| 1778033835 | 8.33° C | - | 1010.9 hPa | 0 mm | 2.24 m/s, 200° | - | - |
| 1778033687 | 8.33° C | - | 1010.9 hPa | 0 mm | 2.24 m/s, 204° | - | - |
| 1778033376 | 8.33° C | - | 1010.9 hPa | 0 mm | 2.24 m/s, 200° | - | - |
| 1778032487 | 8.33° C | - | 1010.9 hPa | 0 mm | 2.24 m/s, 198° | - | - |
| 1778032249 | 8.33° C | - | 1010.5 hPa | 0 mm | 2.24 m/s, 197° | - | - |
| 1778032177 | 8.33° C | - | 1010.5 hPa | 0 mm | 2.24 m/s, 197° | - | - |
| 1778031983 | 8.89° C | - | 1010.5 hPa | 0 mm | 3.58 m/s, 190° | - | - |
| 1778031577 | 8.89° C | - | 1010.5 hPa | 0 mm | 3.58 m/s, 190° | - | - |
| 1778031435 | 8.89° C | - | 1010.2 hPa | 0 mm | 3.13 m/s, 203° | - | - |
| 1778031287 | 8.89° C | - | 1010.2 hPa | 0 mm | 4.47 m/s, 190° | - | - |
| 1778030978 | 8.89° C | - | 1010.2 hPa | 0 mm | 3.13 m/s, 203° | - | - |
| 1778030708 | 8.89° C | - | 1010.2 hPa | 0 mm | 3.58 m/s, 203° | - | - |
| 1778030377 | 8.89° C | - | 1010.2 hPa | 0 mm | 3.58 m/s, 203° | - | - |
| 1778030234 | 8.89° C | - | 1010.2 hPa | 0 mm | 4.02 m/s, 153° | - | - |
| 1778030087 | 8.89° C | - | 1010.2 hPa | 0 mm | 4.02 m/s, 152° | - | - |
| 1778029777 | 8.89° C | - | 1010.2 hPa | 0 mm | 4.02 m/s, 153° | - | - |
| 1778029635 | 9.44° C | - | 1009.9 hPa | 0 mm | 4.02 m/s, 146° | - | - |
* Rain latest hour (hover to see other rain measurements)
** Current wind speed in m/s (hover to see current wind gust speed)